Weather History for Ashtabula, OH

Change the Weather History Date:

Saturday, May 4, 2013

  Actual Average (KYNG) Record (KYNG)
Temperature  
Mean Temperature 61 °F 55 °F  
Max Temperature 72 °F 66 °F 88 °F (1949)
Min Temperature 51 °F 43 °F 27 °F (2002)
Degree Days  
Heating Degree Days 4 11  
Month to date heating degree days 45  
Since 1 July heating degree days 6072  
Cooling Degree Days 0 0  
Month to date cooling degree days 0  
Year to date cooling degree days 9  
Growing Degree Days 11 (Base 50)    
Moisture  
Dew Point 36 °F    
Average Humidity 41    
Maximum Humidity 63    
Minimum Humidity 24    
Precipitation  
Precipitation 0.00 in 0.12 in 1.00 in (2012)
Month to date precipitation 0.44  
Year to date precipitation 11.44  
Snow  
Snow 0.00 in 0.00 in - ()
Month to date snowfall 0.0  
Since 1 July snowfall 62.7  
Snow Depth -    
Sea Level Pressure  
Sea Level Pressure 30.16 in    
Wind  
Wind Speed 10 mph (SE)    
Max Wind Speed 15 mph    
Max Gust Speed 24 mph    
Visibility 10 miles    
Events      
T = Trace of Precipitation, MM = Missing Value Source: NWS Daily Summary

Daily Weather History Graph

Daily Weather History Graph

Search for Another Location

Airport:

Trip Planner

Search our weather history database for the weather conditions in past years. The results will help you decide how hot, cold, wet, or windy it might be!

Date:

Astronomy

May. 04, 2013 Rise Set
Actual Time 6:15 AM EDT 8:24 PM EDT
Civil Twilight 5:44 AM EDT 8:55 PM EDT
Nautical Twilight 5:06 AM EDT 9:33 PM EDT
Astronomical Twilight 4:25 AM EDT 10:14 PM EDT
Moon 3:17 AM EDT (5/4) 3:16 PM EDT (5/4)
Length of Visible Light 15h 10m
Length of Day
14h 09m
Waning Crescent, 27% of the Moon is Illuminated
May 4
Waning Crescent
May 9
New
May 18
First Quarter
May 25
Full
May 31
Last Quarter

Hourly Weather History & Observations

Time (EDT) Temp. Dew Point Humidity Pressure Visibility Wind Dir Wind Speed Gust Speed Precip Events Conditions
12:53 AM 61.0 °F 39.9 °F 46% 30.19 in 10.0 mi SSE 10.4 mph - N/A   Clear
1:53 AM 60.1 °F 39.0 °F 46% 30.18 in 10.0 mi SSE 12.7 mph - N/A   Clear
2:53 AM 57.9 °F 39.0 °F 49% 30.17 in 10.0 mi SSE 11.5 mph - N/A   Clear
3:53 AM 57.0 °F 39.0 °F 51% 30.17 in 10.0 mi SE 9.2 mph - N/A   Clear
4:53 AM 54.0 °F 39.0 °F 57% 30.18 in 10.0 mi SSE 9.2 mph - N/A   Clear
5:53 AM 53.1 °F 39.0 °F 59% 30.19 in 10.0 mi SSE 11.5 mph 20.7 mph N/A   Clear
6:53 AM 52.0 °F 39.0 °F 61% 30.20 in 10.0 mi SE 10.4 mph - N/A   Clear
7:53 AM 53.1 °F 36.0 °F 52% 30.21 in 10.0 mi SSE 13.8 mph 24.2 mph N/A   Clear
8:53 AM 55.0 °F 36.0 °F 49% 30.21 in 10.0 mi SE 9.2 mph - N/A   Clear
9:53 AM 59.0 °F 34.0 °F 39% 30.20 in 10.0 mi South 13.8 mph - N/A   Clear
10:53 AM 62.1 °F 34.0 °F 35% 30.20 in 10.0 mi South 15.0 mph 23.0 mph N/A   Clear
11:53 AM 64.9 °F 36.0 °F 34% 30.19 in 10.0 mi SE 10.4 mph 19.6 mph N/A   Clear
12:53 PM 68.0 °F 36.0 °F 31% 30.17 in 10.0 mi South 10.4 mph 17.3 mph N/A   Clear
1:53 PM 69.1 °F 33.1 °F 26% 30.16 in 10.0 mi SSE 15.0 mph 23.0 mph N/A   Clear
2:53 PM 69.1 °F 32.0 °F 25% 30.14 in 10.0 mi SE 11.5 mph - N/A   Clear
3:53 PM 71.1 °F 32.0 °F 24% 30.12 in 10.0 mi SSE 10.4 mph 18.4 mph N/A   Clear
4:53 PM 71.1 °F 35.1 °F 27% 30.11 in 10.0 mi South 8.1 mph - N/A   Clear
5:53 PM 71.1 °F 33.1 °F 25% 30.10 in 10.0 mi SSE 9.2 mph - N/A   Clear
6:53 PM 69.1 °F 37.0 °F 31% 30.11 in 10.0 mi North 5.8 mph - N/A   Clear
7:53 PM 66.0 °F 35.1 °F 32% 30.11 in 10.0 mi NE 3.5 mph - N/A   Clear
8:53 PM 60.1 °F 33.1 °F 36% 30.12 in 10.0 mi NE 3.5 mph - N/A   Clear
9:53 PM 57.0 °F 35.1 °F 44% 30.14 in 10.0 mi Calm Calm - N/A   Clear
10:53 PM 51.1 °F 39.0 °F 63% 30.14 in 10.0 mi SE 4.6 mph - N/A   Clear
11:53 PM 55.9 °F 39.0 °F 53% 30.14 in 10.0 mi SE 4.6 mph - N/A   Clear